Regional Weather Roundup
Issued by NWS

Home | Current Version | Previous Version | Text Only | Print | Product List | Glossary On
Versions: 1 2 3 4 5 6 7 8 9 10 11 12 13 14 15 16 17 18 19 20 21 22 23 24 25 26 27 28 29 30 31 32 33 34 35 36 37 38 39 40 41 42 43 44 45 46 47 48 49 50
000
ASUS43 KTOP 200059
RWRKS

WEATHER ROUNDUP FOR KANSAS
NATIONAL WEATHER SERVICE GOODLAND KS
700 PM CST THU JAN 19 2017

NOTE:  "FAIR" INDICATES FEW OR NO CLOUDS BELOW 12,000 FEET WITH NO
SIGNIFICANT WEATHER AND/OR OBSTRUCTIONS TO VISIBILITY.

KSZ001>006-013>018-027>032-041>047-200200-
NORTHWEST KANSAS

CITY           SKY/WX    TMP DP  RH WIND       PRES   REMARKS
GOODLAND       CLOUDY    35  35 100 SE10      29.55R FOG     WCI  27
HAYS           CLOUDY    43  42  97 E6        29.59S FOG
HILL CITY      PTCLDY    39  39 100 E6        29.57F FOG
RUSSELL        CLOUDY    44  43  96 E6        29.58R FOG
$$

KSZ061>065-074>080-084>089-200200-
SOUTHWEST KANSAS

CITY           SKY/WX    TMP DP  RH WIND       PRES   REMARKS
DODGE CITY     CLOUDY    41  37  86 SW5       29.57R
ELKHART          N/A     33  24  69 E8          N/A
GARDEN CITY    CLOUDY    41  37  86 CALM      29.56S
GREAT BEND     CLOUDY    44  43  96 E6        29.59S
LIBERAL        CLOUDY    43  37  81 CALM      29.59S
$$

KSZ066>073-081>083-090>101-200200-
SOUTHEAST KANSAS

CITY           SKY/WX    TMP DP  RH WIND       PRES   REMARKS
CHANUTE        CLOUDY    50  45  83 SE5       29.62S
COFFEYVILLE    CLOUDY    51  46  83 SE6       29.62R
HUTCHINSON     CLOUDY    46  44  93 E10       29.59R
MEDICINE LODGE   N/A     43  40  89 E7        29.56F
NEWTON         CLOUDY    44  44 100 SE9       29.60S FOG
PARSONS        CLOUDY    50  45  83 S3        29.63R
WICHITA INTL   CLOUDY    48  44  86 E8        29.59S
WICHITA JABRA  CLOUDY    45  45 100 E6        29.59S
WICHITA MCCONL CLOUDY    46  45  93 E9        29.58F
WINFIELD       MOCLDY    49  45  86 SE8       29.59S
$$

KSZ007>012-019>026-033>040-048>060-102>105-200200-
NORTHEAST KANSAS

CITY           SKY/WX    TMP DP  RH WIND       PRES   REMARKS
CONCORDIA      FOG       42  42 100 E3        29.62S VSB 1/2
EMPORIA        LGT RAIN  46  45  96 CALM      29.62S FOG
LAWRENCE       CLOUDY    46  46 100 CALM      29.64S
MANHATTAN      CLOUDY    46  44  93 S3        29.63R FOG
OLATHE IND     CLOUDY    47  46  97 SE3       29.64S
OLATHE EXE     CLOUDY    46  46 100 E3        29.64S
SALINA         CLOUDY    46  45  96 E3        29.62S
TOPEKA BILLARD LGT RAIN  47  44  90 CALM      29.64S
TOPEKA FORBES  CLOUDY    47  46  97 SE3       29.63S FOG
$$



USA.gov is the U.S. government's official web portal to all federal, state and local government web resources and services.